sat.trackr.live / text

‹ back to catalog

STARLINK-36656

NORAD 67841 · 2026-033W

PAYLOAD ACTIVE UNKNOWN

§ Identity

Operator
Country
US
Launch date
2026-02-16
Launch site
AFETR
Launch vehicle
Mass (kg)
RCS (m²)

Purposes: comms

External: N2YO · Heavens-Above · Gunter

§ Orbital elements

Epoch: 2026-05-25T04:26:09.557376Z

Period
94.27 min
Inclination
43.0048°
Eccentricity
0.0002503
Mean motion
15.27593776 rev/d
Perigee alt
481.3 km
Apogee alt
484.7 km
Semi-major
6,861.1 km
B*
5.8884e-4
RAAN
194.9853°
Arg perigee
275.7617°
Mean anomaly
84.2949°
Rev number
1,637

§ Raw data

STARLINK-366561 67841U 26033W   26145.18483284  .00015984  00000+0  58884-3 0  99982 67841  43.0048 194.9853 0002503 275.7617  84.2949 15.27593776 16376

JSON: /api/v1/satellites/67841 · /tle

For live sub-satellite position, see the globe view (requires WebGL).

§ Visibility from observer

Set your observer location to see the next 7 days of passes ≥ 10°. The values pass through the URL so the page stays shareable.

No JS? Fill the form by hand. The geolocation button needs JavaScript.